User: anonymous   Login
Location: Beaurecueil
(43.5122°N, 5.5450°E)
Time: 12:19:31
(UTC+00:00)
Language:

Cosmos 2151 Rocket - Orbit

View from above orbital plane
View from above orbital plane
View from above satellite
View from above satellite

Ground track
Ground track

The orbit data is extracted from the following two-line orbital elements,

1 21423U 91042B   20330.86782675 +.00000088 +00000-0 +85713-5 0  9990
2 21423 082.4960 226.0356 0019139 090.3890 269.9516 14.79805788567530
Epoch (UTC): 25 November 2020 20:49:40
Eccentricity: 0.0019139
inclination: 82.4960°
perigee height: 616 km
apogee height: 643 km
right ascension of ascending node: 226.0356°
argument of perigee: 90.3890°
revolutions per day: 14.79805788
mean anomaly at epoch: 269.9516°
orbit number at epoch: 56753

The dashed part of the orbit path shows where the satellite is in the earth's shadow,  

DLR